Location: Maccacari
(45.1333°N, 11.1333°E)
Time: 23:02:35
(UTC+00:00)

CENTAUR R/B - Pass Details

Date: 18 September 2020
Orbit: 755 x 1433 km, 63.4° (Epoch: 02 October)

Event Time Altitude Azimuth Distance (km) Brightness Sun altitude
Rises 17:33:35 0° 317° (NW) 3,974 6.5 -3.2°
Reaches altitude 10° 17:36:42 10° 330° (NNW) 3,121 5.7 -3.8°
Maximum altitude 17:43:03 27° 26° (NNE) 2,263 4.3 -4.9°
Drops below altitude 10° 17:50:02 10° 81° (E) 3,463 4.8 -6.1°
Enters shadow 17:51:21 - 86° (E) 3,822 4.9 -6.3°
